Regional Weather Roundup
Issued by NWS

Home | Current Version | Previous Version | Text Only | Print | Product List | Glossary On
Versions: 1 2 3 4 5 6 7 8 9 10 11 12 13 14 15 16 17 18 19 20 21 22 23 24 25 26 27 28 29 30 31 32 33 34 35 36 37 38 39 40 41 42 43 44 45 46 47 48 49 50
000
ASCA44 KEWX 220820
RWRMX

LATIN AMERICA AND CARIBBEAN REGIONAL WEATHER ROUNDUP
NATIONAL WEATHER SERVICE AUSTIN/SAN ANTONIO TX
300 AM CDT MON SEP 22 2014

NOTE: "FAIR" INDICATED FEW OR NO CLOUDS BELOW 12,000 FEET WITH NO
SIGNIFICANT WEATHER AND/OR OBSTRUCTIONS TO VISIBILITY.

BAJA CALIFORNIA

CITY           SKY/WX    TMP DP  RH WIND       PRES   REMARKS
TIJUANA        CLEAR     66  59  77 N5        29.99S

NORTHWESTERN MEXICO

CITY           SKY/WX    TMP DP  RH WIND       PRES   REMARKS

NORTHEASTERN MEXICO

CITY           SKY/WX    TMP DP  RH WIND       PRES   REMARKS
MONTERREY      LGT RAIN  73  72  94 CALM      30.04S
REYNOSA        CLOUDY    75  72  88 N6        29.98S
CD. VICTORIA   PTCLDY    73  73 100 N2        30.00S

WESTERN MEXICO

CITY           SKY/WX    TMP DP  RH WIND       PRES   REMARKS
DEL BAJIO      CLOUDY    61  61 100 CALM      30.28F
GUADALAJARA    MOCLDY    64  61  88 SE3       30.18F
MAZATLAN       PTCLDY    75  73  94 N7        29.90S
P. VALLARTA    MOCLDY    77  73  88 CALM      29.90F

CENTRAL MEXICO

CITY           SKY/WX    TMP DP  RH WIND       PRES   REMARKS
MEXICO CITY    MOCLDY    61  52  72 N5        30.33S
MORELIA        MOCLDY    61  59  94 CALM      30.23F
QUERETARO      MOCLDY    57  55  94 CALM      30.31S
S. LUIS POTOSI PTCLDY    63  59  88 NE5       30.27S
TOLUCA         MOCLDY    54  48  82 CALM      30.38F HAZE

SOUTHERN MEXICO

CITY           SKY/WX    TMP DP  RH WIND       PRES   REMARKS
ACAPULCO       MOCLDY    81  77  89 N5        29.88F

YUCATAN PENINSULA

CITY           SKY/WX    TMP DP  RH WIND       PRES   REMARKS
CANCUN         MOCLDY    81  77  89 SE6       29.93F
COZUMEL        CLEAR     73  73 100 SE9       29.93F
MERIDA         CLEAR     75  75 100 CALM      29.93F
TAPACHULA      MOCLDY    77  75  94 CALM      29.91R

CENTRAL AMERICA

CITY           SKY/WX    TMP DP  RH WIND       PRES   REMARKS

CARIBBEAN

CITY           SKY/WX    TMP DP  RH WIND       PRES   REMARKS
ARUBA          MOCLDY    82  77  83 E7        29.86S HX  91
CURACAO        PTCLDY    81  75  83 SE7       29.86F
KINGSTON       PTCLDY    82  75  78 N7        29.92S
NASSAU         PTCLDY    81  75  83 CALM      29.97F
SAN JUAN       PTCLDY    82  75  78 NE13      29.93F
SANTO DOMINGO  PTCLDY    75  73  94 NE5       29.94S
ST. CROIX      PTCLDY    81  75  83 NE5       29.92
ST. MAARTEN    PTCLDY    82  75  78 NE6       29.92S

$$




USA.gov is the U.S. government's official web portal to all federal, state and local government web resources and services.